sim
Sign-in with your pilot id or email,
or register
Callsign
Passwort

Schedule Details

Flight Number: EWG5900
Departure: Vienna International Airport (LOWW) at 06:00
Arrival: Fuerteventura Airport (GCFV) at 11:00
Route: Eurowings Passenger Schedule. Enter filed route here before submitting Pirep.

Weather Information
Getting current METAR information for LOWW 172220Z 16007KT CAVOK 20/15 Q1014 NOSIG
Getting current METAR information for GCFV 172230Z AUTO 03004KT 7000 NSC 24/20 Q1014

Schedule Frequency

Route Map